[[{"header":{"parameterUnit":"m.s-1","parameterCategory":1,"la1":30.2991,"la2":30.254,"lo1":-89.0895,"lo2":-89.0444,"dy":0.0017,"dx":0.0017,"nx":28,"ny":28,"refTime":"2024-08-01T21:00:00:Z","depth":0,"parameterNumber":2,"parameterNumberName":"U-component_of_WINDS"},"data":[0,0,0,0,0,0,0,0,0,0,0,0,0,0,0,0,0,0,0,0,0,0,0,0,0,0,0,0,0,0,0,0,0,0,0,0,0,0,0,0,0,0,0,0,0,0,0,0,0,0,0,0,0,0,0,0,0,0,-0.1138,-0.1137,0,-0.1093,-0.1093,-0.1092,-0.108,-0.108,-0.108,-0.108,-0.1029,-0.1028,-0.1026,0,0,0,0,0,0,0,0,0,0,0,0,0,-0.1207,-0.1206,-0.1138,-0.1137,-0.1137,-0.1093,-0.1093,-0.1092,-0.1079,-0.108,-0.108,-0.108,-0.103,-0.1028,-0.1026,0,0,0,0,0,0,0,0,0,0,0,0,0,-0.1171,-0.1206,-0.1138,-0.1125,-0.1124,-0.1093,-0.1093,-0.1092,-0.1079,-0.108,-0.108,-0.1081,-0.1031,-0.1028,-0.1026,-0.1003,0,0,-0.1019,-0.1017,0,0,0,0,0,0,0,0,-0.1173,-0.1169,-0.1128,-0.1126,-0.1124,-0.1092,-0.1098,-0.1062,-0.1079,-0.1096,-0.108,-0.1081,-0.105,-0.1046,-0.1036,-0.1001,-0.0999,-0.1018,-0.1017,-0.1016,-0.1015,0,0,0,0,0,0,0,-0.1176,-0.117,-0.112,-0.1127,-0.1125,-0.112,-0.1116,-0.1091,-0.1071,-0.1095,-0.1094,-0.1089,-0.1049,-0.1039,-0.1035,-0.0998,-0.1018,-0.1016,-0.1015,-0.1014,-0.0941,-0.0941,0,0,0,0,0,0,-0.1181,-0.1173,-0.1121,-0.1119,-0.115,-0.1119,-0.1114,-0.1102,-0.1071,-0.1067,-0.1089,-0.1088,-0.1043,-0.1038,-0.1033,-0.1004,-0.1016,-0.1014,-0.1012,-0.0942,-0.0941,-0.094,0,0,0,0,0,0,-0.1183,-0.1177,-0.1123,-0.1145,-0.1138,-0.1117,-0.1104,-0.1101,-0.1091,-0.1067,-0.1063,-0.1082,-0.1043,-0.1037,-0.1011,-0.1002,-0.1012,-0.101,-0.0942,-0.0941,-0.0941,-0.0947,0,0,0,0,0,0,-0.1185,-0.1177,-0.117,-0.1145,-0.1137,-0.1103,-0.1104,-0.11,-0.1088,-0.1087,-0.106,-0.1056,-0.1043,-0.1015,-0.1009,-0.0999,-0.1008,-0.0943,-0.0942,-0.0941,-0.0947,-0.0946,-0.0946,0,0,0,0,0,-0.1187,-0.1172,-0.1169,-0.1163,-0.1127,-0.1103,-0.1098,-0.1085,-0.1087,-0.1078,-0.1063,-0.1056,-0.1005,-0.1012,-0.1005,-0.0995,-0.0943,-0.0942,-0.0941,-0.0948,-0.0947,-0.0946,0,0,0,0,0,0,-0.1194,-0.1168,-0.1165,-0.1142,-0.1125,-0.1101,-0.1089,-0.1084,-0.1064,-0.1064,-0.1047,-0.1041,-0.1017,-0.1003,-0.1012,-0.0971,-0.0974,-0.0971,-0.0981,-0.098,-0.0979,-0.0982,-0.1006,0,0,0,0,0,-0.1193,-0.1177,-0.1155,-0.1136,-0.1128,-0.111,-0.1099,-0.1091,-0.1071,-0.1064,-0.1046,-0.1026,-0.1005,-0.0992,-0.0972,-0.0946,-0.0939,-0.0935,-0.0934,-0.0934,-0.0931,-0.0916,-0.0914,-0.0937,-0.0937,-0.0937,0,0,-0.119,-0.1174,-0.1165,-0.1137,-0.1123,-0.1105,-0.1104,-0.1085,-0.1071,-0.106,-0.1035,-0.1022,-0.0998,-0.0973,-0.096,-0.0961,-0.0924,-0.0932,-0.0932,-0.093,-0.0915,-0.0913,-0.0911,-0.0936,-0.0936,-0.0936,0,0,-0.1176,-0.1163,-0.1146,-0.1132,-0.1111,-0.11,-0.1096,-0.1072,-0.1064,-0.1039,-0.103,-0.1013,-0.0977,-0.0961,-0.0948,-0.0929,-0.0922,-0.0922,-0.0918,-0.0903,-0.0901,-0.09,-0.0892,-0.089,-0.092,-0.092,-0.092,0,-0.1174,-0.1149,-0.1137,-0.1119,-0.1107,-0.1098,-0.108,-0.1067,-0.1039,-0.103,-0.1032,-0.0988,-0.0971,-0.0942,-0.0937,-0.0927,-0.0921,-0.0925,-0.0903,-0.0901,-0.0899,-0.0892,-0.0889,-0.0921,-0.0921,-0.0921,-0.0921,0,-0.1148,-0.113,-0.1119,-0.1095,-0.1081,-0.1063,-0.1048,-0.1035,-0.1028,-0.1016,-0.0991,-0.0971,-0.0946,-0.0939,-0.0931,-0.0908,-0.0909,-0.0907,-0.0908,-0.0898,-0.089,-0.0887,-0.0921,-0.0921,-0.0921,-0.0921,0,0,-0.1135,-0.1106,-0.1102,-0.1091,-0.1068,-0.1053,-0.1034,-0.1012,-0.1001,-0.0983,-0.0966,-0.0937,-0.0935,-0.0921,-0.0911,-0.0898,-0.0883,-0.0898,-0.0897,-0.0895,-0.0856,-0.0857,-0.0854,-0.0879,-0.0879,-0.0878,-0.0858,0,-0.1117,-0.1085,-0.1075,-0.1048,-0.1031,-0.1022,-0.1006,-0.0989,-0.0977,-0.096,-0.0946,-0.0926,-0.0926,-0.0917,-0.0904,-0.0888,-0.0875,-0.0889,-0.0862,-0.0861,-0.0867,-0.085,-0.0851,-0.0833,-0.0855,-0.0854,-0.0854,0,-0.1092,-0.1075,-0.1047,-0.1026,-0.1019,-0.1004,-0.0983,-0.0967,-0.0948,-0.094,-0.0924,-0.0916,-0.0894,-0.0898,-0.0868,-0.0878,-0.0866,-0.0857,-0.0855,-0.0851,-0.0856,-0.0845,-0.0826,-0.0823,-0.0849,-0.085,-0.085,0,-0.1085,-0.1055,-0.1034,-0.1025,-0.1001,-0.0991,-0.098,-0.0961,-0.0948,-0.0929,-0.0921,-0.0899,-0.0887,-0.0869,-0.0855,-0.0859,-0.0825,-0.0828,-0.0817,-0.0817,-0.0809,-0.081,-0.0788,-0.0803,-0.0803,-0.0803,-0.0803,0,-0.1066,-0.1048,-0.1031,-0.1018,-0.0998,-0.0986,-0.0966,-0.0954,-0.0938,-0.0921,-0.0912,-0.0897,-0.0879,-0.086,-0.0848,-0.0825,-0.0819,-0.0811,-0.0808,-0.0812,-0.0813,-0.0803,-0.0803,-0.0802,-0.0803,-0.0803,-0.0803,0,-0.1054,-0.1042,-0.1019,-0.0998,-0.0992,-0.0979,-0.096,-0.0946,-0.0935,-0.0914,-0.0909,-0.089,-0.0868,-0.0852,-0.0823,-0.0815,-0.0789,-0.0786,-0.0796,-0.0795,-0.0784,-0.0785,-0.0754,-0.0749,-0.0769,-0.0769,-0.0769,0,-0.1042,-0.1029,-0.1008,-0.0997,-0.0987,-0.0969,-0.0957,-0.0944,-0.0931,-0.0909,-0.0897,-0.0875,-0.0857,-0.0822,-0.0804,-0.0782,-0.0778,-0.0769,-0.0774,-0.0778,-0.0777,-0.0778,-0.0776,-0.0768,-0.0768,-0.0767,-0.0767,0,-0.1022,-0.1017,-0.1001,-0.0982,-0.0968,-0.0953,-0.0937,-0.0928,-0.0912,-0.0898,-0.0877,-0.0863,-0.0834,-0.0812,-0.0788,-0.0775,-0.0768,-0.0766,-0.0762,-0.0765,-0.0771,-0.0767,-0.0793,-0.0766,-0.0767,-0.0767,-0.0767,-0.0767,-0.1009,-0.0997,-0.0981,-0.0963,-0.095,-0.0935,-0.0922,-0.091,-0.0892,-0.0869,-0.0862,-0.084,-0.082,-0.0788,-0.0774,-0.0755,-0.0756,-0.075,-0.0748,-0.0747,-0.0747,-0.0775,-0.0751,-0.0751,-0.0751,-0.0751,-0.0751,0,-0.0988,-0.0978,-0.0961,-0.094,-0.0926,-0.0923,-0.0906,-0.0893,-0.0874,-0.0857,-0.084,-0.0815,-0.0794,-0.0775,-0.0753,-0.0741,-0.0737,-0.0735,-0.0735,-0.0732,-0.0748,-0.0754,-0.0739,-0.0739,-0.0739,-0.0739,-0.0739,-0.0739,-0.0976,-0.0955,-0.0948,-0.0921,-0.091,-0.0889,-0.0879,-0.0866,-0.0852,-0.0826,-0.0808,-0.0797,-0.0779,-0.0756,-0.0735,-0.073,-0.0722,-0.0721,-0.0715,-0.073,-0.0731,-0.0733,-0.0738,-0.0719,-0.0719,-0.07,-0.07,-0.07]},{"header":{"parameterUnit":"m.s-1","parameterCategory":1,"la1":30.2991,"la2":30.254,"lo1":-89.0895,"lo2":-89.0444,"dy":0.0017,"dx":0.0017,"nx":28,"ny":28,"refTime":"2024-08-01T21:00:00:Z","depth":0,"parameterNumber":3,"parameterNumberName":"V-component_of_WINDS"},"data":[0,0,0,0,0,0,0,0,0,0,0,0,0,0,0,0,0,0,0,0,0,0,0,0,0,0,0,0,0,0,0,0,0,0,0,0,0,0,0,0,0,0,0,0,0,0,0,0,0,0,0,0,0,0,0,0,0,0,1.4269,1.4269,0,1.4347,1.4348,1.4349,1.4407,1.4408,1.4408,1.4409,1.4487,1.4488,1.449,0,0,0,0,0,0,0,0,0,0,0,0,0,1.4162,1.4164,1.4268,1.4269,1.427,1.4347,1.4348,1.4349,1.4407,1.4408,1.4409,1.4409,1.4486,1.4488,1.449,0,0,0,0,0,0,0,0,0,0,0,0,0,1.4221,1.4165,1.4268,1.4309,1.4313,1.4347,1.4348,1.435,1.4407,1.4408,1.4409,1.4409,1.4486,1.4488,1.449,1.449,0,0,1.4498,1.4499,0,0,0,0,0,0,0,0,1.4218,1.4225,1.4302,1.4306,1.4311,1.4368,1.434,1.4396,1.4407,1.4371,1.4409,1.441,1.4447,1.4452,1.4465,1.4493,1.4497,1.4498,1.4499,1.45,1.4501,0,0,0,0,0,0,0,1.4214,1.4222,1.43,1.4303,1.4308,1.4321,1.433,1.4351,1.4404,1.4375,1.4379,1.4388,1.4449,1.4463,1.4467,1.4498,1.4498,1.45,1.4501,1.4502,1.4524,1.4523,0,0,0,0,0,0,1.4204,1.4218,1.4297,1.4302,1.4266,1.4322,1.4333,1.4349,1.4404,1.4413,1.4387,1.439,1.4458,1.4465,1.447,1.447,1.45,1.4503,1.4504,1.4525,1.4523,1.4523,0,0,0,0,0,0,1.4202,1.4211,1.4294,1.4261,1.4273,1.4323,1.4341,1.435,1.4364,1.4413,1.4422,1.4391,1.4459,1.4467,1.4483,1.4473,1.4504,1.4506,1.4526,1.4524,1.4523,1.447,0,0,0,0,0,0,1.4198,1.4209,1.4211,1.4261,1.4275,1.4307,1.4341,1.4351,1.4368,1.4373,1.442,1.4428,1.446,1.4479,1.4486,1.4477,1.4508,1.4527,1.4525,1.4523,1.4473,1.4468,1.4463,0,0,0,0,0,1.4194,1.4194,1.4211,1.422,1.4278,1.4307,1.4314,1.4352,1.4367,1.4368,1.4399,1.4426,1.4474,1.4481,1.4488,1.448,1.4527,1.4525,1.4524,1.4476,1.4469,1.4463,0,0,0,0,0,0,1.4142,1.4201,1.4221,1.4237,1.4266,1.4317,1.4319,1.4344,1.437,1.4373,1.4418,1.4428,1.4439,1.4462,1.4468,1.448,1.4504,1.4503,1.4465,1.4458,1.4453,1.4447,1.451,0,0,0,0,0,1.4132,1.4152,1.4202,1.4211,1.4225,1.4269,1.4283,1.431,1.4341,1.4354,1.4386,1.4415,1.4435,1.4449,1.4471,1.4477,1.4486,1.4475,1.4469,1.4465,1.4463,1.4464,1.4458,1.4516,1.4516,1.4516,0,0,1.4113,1.4147,1.4157,1.4201,1.4227,1.4244,1.4279,1.4297,1.4309,1.4356,1.4373,1.4397,1.4432,1.4442,1.4448,1.4461,1.4449,1.4462,1.4458,1.4459,1.4461,1.4455,1.445,1.4515,1.4515,1.4515,0,0,1.4085,1.4115,1.4123,1.4148,1.4186,1.4215,1.4216,1.4262,1.4279,1.4297,1.4332,1.4346,1.4382,1.4404,1.442,1.4395,1.442,1.4401,1.4372,1.4372,1.4368,1.4364,1.4351,1.4347,1.44,1.4399,1.4399,0,1.4056,1.4084,1.4125,1.4139,1.4155,1.4198,1.4206,1.4227,1.427,1.428,1.4294,1.4337,1.4364,1.4377,1.4371,1.4383,1.4384,1.4396,1.4365,1.4362,1.4359,1.4347,1.4343,1.4397,1.4397,1.4397,1.4397,0,1.4044,1.4062,1.4065,1.4104,1.4121,1.4132,1.4172,1.4184,1.4207,1.4233,1.4248,1.4281,1.4309,1.4314,1.4338,1.4329,1.4336,1.4357,1.4382,1.435,1.4339,1.4336,1.4393,1.4394,1.4394,1.4395,0,0,1.3988,1.4047,1.4047,1.4063,1.4106,1.412,1.4131,1.4158,1.4165,1.4192,1.42,1.4228,1.4246,1.4264,1.429,1.429,1.4263,1.4311,1.4313,1.4298,1.4251,1.4233,1.4228,1.428,1.428,1.4279,1.4247,0,1.3966,1.3988,1.4023,1.4033,1.4048,1.4087,1.4095,1.4121,1.4144,1.4159,1.4185,1.4202,1.4227,1.4238,1.424,1.4266,1.4254,1.427,1.4285,1.4285,1.4273,1.4223,1.4206,1.4174,1.4244,1.4243,1.4243,0,1.3944,1.3966,1.3978,1.4015,1.4023,1.403,1.4055,1.4069,1.4097,1.4114,1.4131,1.4159,1.4169,1.4192,1.4204,1.4213,1.4222,1.4235,1.4235,1.4236,1.4261,1.4221,1.4165,1.4159,1.4238,1.4238,1.4239,0,1.3898,1.3932,1.3942,1.3955,1.4,1.4003,1.4021,1.4051,1.4063,1.4084,1.4091,1.4113,1.4125,1.414,1.4171,1.4186,1.4178,1.4205,1.419,1.4189,1.4186,1.4185,1.4128,1.4195,1.4195,1.4195,1.4195,0,1.3868,1.3873,1.3921,1.3927,1.3932,1.397,1.3973,1.3995,1.4019,1.4028,1.4063,1.407,1.4112,1.4123,1.4148,1.4151,1.4157,1.4169,1.4175,1.4165,1.4163,1.4169,1.4171,1.4194,1.4194,1.4194,1.4194,0,1.3819,1.3852,1.3864,1.3904,1.3914,1.3915,1.3948,1.3953,1.3978,1.3988,1.3992,1.403,1.4044,1.4077,1.4101,1.4117,1.4113,1.4126,1.4103,1.4107,1.4088,1.4088,1.4032,1.4024,1.4098,1.4097,1.4097,0,1.3797,1.3801,1.384,1.3847,1.3864,1.3877,1.3889,1.3925,1.3935,1.3965,1.3965,1.3982,1.3998,1.4018,1.4046,1.4063,1.4075,1.4053,1.4077,1.4065,1.407,1.4068,1.4067,1.4048,1.4047,1.4046,1.4045,0,1.3754,1.3768,1.3785,1.3804,1.3817,1.3834,1.3854,1.3858,1.3898,1.3907,1.3922,1.3933,1.3955,1.397,1.399,1.4007,1.4031,1.4037,1.4034,1.4022,1.4007,1.4011,1.4086,1.4038,1.4039,1.404,1.404,1.404,1.3716,1.3719,1.3745,1.376,1.3778,1.3794,1.3799,1.3822,1.3835,1.3856,1.3876,1.3887,1.391,1.3939,1.3954,1.3961,1.3974,1.3971,1.3969,1.3967,1.3961,1.4008,1.3966,1.3966,1.3966,1.3966,1.3967,0,1.3672,1.3689,1.3702,1.3727,1.3737,1.3759,1.378,1.3786,1.3796,1.3816,1.3828,1.3842,1.3855,1.3883,1.3898,1.3898,1.3909,1.39,1.3899,1.3902,1.395,1.395,1.3891,1.3891,1.3891,1.3891,1.3891,1.3891,1.365,1.3655,1.3672,1.3684,1.3702,1.3712,1.3722,1.3735,1.375,1.3764,1.3774,1.3792,1.3813,1.3829,1.3841,1.3848,1.385,1.3837,1.3848,1.3892,1.3899,1.3906,1.3906,1.3838,1.3838,1.3799,1.3798,1.3798]}]]